ZF1RC George Town KY current weather conditions

sailwx.info

Wind from 207 at 0 knots gusting 1

Air temperature 29.4° C
Dewpoint 21.9° C

Last reported at 2014-Dec-21 18:50 UTC.
Time now 2014-Dec-21 19:24 UTC

Location: N 19°16' W 081°23'.
View on Google Maps.

See reports from other nearby stations

  
Tides and Currents Weather Stations Pressure Air Temp Water Temp Dewpoint Dewpoint Depression Visibility Wind Speed Wind Dir Waves Ship Positions
date/time (UTC)wind fromknots sea level pressurealtimeterstation pressurevisibilityair tempwater tempwave heightnotes
2014-Dec-21 18:50 207 0 gusting 1 29.4
2014-Dec-21 18:40 096 1 gusting 1 29.4
2014-Dec-21 18:30 172 29.4
2014-Dec-21 18:20 044 1 gusting 1 28.9
2014-Dec-21 18:10 026 1 gusting 1 28.9
2014-Dec-21 18:00 090 2 gusting 6 28.9
2014-Dec-21 17:50 299 28.9
2014-Dec-21 17:40 121 1 gusting 1 28.9
2014-Dec-21 17:30 277 0 gusting 1 28.9
2014-Dec-21 17:20 147 0 gusting 1 28.9
2014-Dec-21 17:10 296 0 gusting 1 28.9
2014-Dec-21 17:00 251 0 gusting 1 28.9
2014-Dec-21 16:50 192 28.9
2014-Dec-21 16:40 193 28.9
2014-Dec-21 16:30 092 0 gusting 2 28.9
2014-Dec-21 16:20 175 2 gusting 2 28.9
2014-Dec-21 16:10 142 28.9
2014-Dec-21 16:00 177 28.9
2014-Dec-21 15:50 083 28.9
2014-Dec-21 15:40 042 1 gusting 2 28.3
2014-Dec-21 15:30 021 0 gusting 6 28.3
2014-Dec-21 15:20 086 0 gusting 6 27.8
2014-Dec-21 15:10 110 3 gusting 6 27.2
2014-Dec-21 15:00 096 4 gusting 6 27.2
2014-Dec-21 14:50 103 2 gusting 5 27.2
2014-Dec-21 14:40 087 4 gusting 6 27.2
2014-Dec-21 14:30 083 4 gusting 6 26.7
2014-Dec-21 14:20 108 1 gusting 4 26.7
2014-Dec-21 14:10 063 4 gusting 6 26.1
2014-Dec-21 14:00 083 4 gusting 5 26.1
2014-Dec-21 13:50 079 4 gusting 5 25.6
2014-Dec-21 13:40 104 4 gusting 6 25.0
2014-Dec-21 13:30 072 2 gusting 2 25.0
2014-Dec-21 13:20 176 1 gusting 2 24.4
2014-Dec-21 13:10 069 3 gusting 4 23.9
2014-Dec-21 13:00 106 2 gusting 2 23.3
2014-Dec-21 12:50 105 2 gusting 2 22.8
2014-Dec-21 12:40 073 1 gusting 2 22.2
2014-Dec-21 12:30 107 1 gusting 1 22.2
2014-Dec-21 12:20 083 0 gusting 1 22.2
2014-Dec-21 12:10 058 0 gusting 0 21.7
2014-Dec-21 12:00 047 0 gusting 1 21.7
2014-Dec-21 11:50 092 0 gusting 1 21.7
2014-Dec-21 11:40 095 1 gusting 2 21.7
2014-Dec-21 11:30 099 1 gusting 1 21.7
2014-Dec-21 11:20 093 0 gusting 1 21.7
2014-Dec-21 11:10 093 0 gusting 1 21.7
2014-Dec-21 11:00 075 1 gusting 1 22.2
2014-Dec-21 10:50 099 1 gusting 1 22.2
2014-Dec-21 10:40 089 0 gusting 1 22.2
2014-Dec-21 10:30 087 1 gusting 1 22.2
2014-Dec-21 10:20 091 0 gusting 2 22.2
2014-Dec-21 10:10 089 1 gusting 1 22.2
2014-Dec-21 10:00 112 0 gusting 1 22.2
2014-Dec-21 09:50 095 0 gusting 1 22.2
2014-Dec-21 09:40 091 1 gusting 1 22.2
2014-Dec-21 09:30 072 0 gusting 2 22.2
2014-Dec-21 09:20 096 1 gusting 2 22.2
2014-Dec-21 09:10 103 0 gusting 1 22.2
2014-Dec-21 09:00 111 22.2
2014-Dec-21 08:50 077 0 gusting 1 22.8
2014-Dec-21 08:40 084 0 gusting 1 22.8
2014-Dec-21 08:30 056 0 gusting 2 22.8
2014-Dec-21 08:20 086 1 gusting 1 22.8
2014-Dec-21 08:10 091 1 gusting 2 22.8
2014-Dec-21 08:00 098 1 gusting 2 22.8
2014-Dec-21 07:50 108 1 gusting 1 22.8
2014-Dec-21 07:40 090 1 gusting 2 22.8
2014-Dec-21 07:30 090 1 gusting 1 22.8
2014-Dec-21 07:20 033 1 gusting 1 22.8
2014-Dec-21 07:10 069 1 gusting 2 22.8
2014-Dec-21 07:00 030 0 gusting 1 22.8
2014-Dec-21 06:50 074 0 gusting 2 22.8
2014-Dec-21 06:40 073 0 gusting 1 22.8
2014-Dec-21 06:30 070 0 gusting 1 22.8
2014-Dec-21 06:20 071 1 gusting 1 22.8
2014-Dec-21 06:10 100 1 gusting 2 22.8
2014-Dec-21 06:00 098 1 gusting 2 22.8
2014-Dec-21 05:50 080 1 gusting 1 23.3
2014-Dec-21 05:40 067 1 gusting 4 22.8
2014-Dec-21 05:20 087 2 gusting 2 23.3
2014-Dec-21 05:10 080 2 gusting 2 22.8
2014-Dec-21 05:00 081 2 gusting 2 22.8
2014-Dec-21 04:50 093 1 gusting 5 22.8
2014-Dec-21 04:40 070 1 gusting 4 22.8
2014-Dec-21 04:30 079 1 gusting 2 22.8
2014-Dec-21 04:20 074 0 gusting 2 22.8
2014-Dec-21 04:10 068 1 gusting 1 23.3
2014-Dec-21 04:00 078 0 gusting 2 23.3
2014-Dec-21 03:50 092 1 gusting 1 22.8
2014-Dec-21 03:40 063 2 gusting 2 22.8
2014-Dec-21 03:30 089 2 gusting 4 22.8
2014-Dec-21 03:20 065 0 gusting 4 22.8
2014-Dec-21 03:10 095 4 gusting 4 23.3
2014-Dec-21 03:00 086 2 gusting 4 22.8
2014-Dec-21 02:50 103 1 gusting 4 22.8
2014-Dec-21 02:40 089 1 gusting 4 22.8
2014-Dec-21 02:30 088 1 gusting 5 23.3
2014-Dec-21 02:20 052 1 gusting 4 22.8
2014-Dec-21 02:10 085 2 gusting 2 23.3
2014-Dec-21 02:00 124 1 gusting 2 23.3
2014-Dec-21 01:50 075 2 gusting 4 22.8
2014-Dec-21 01:40 086 1 gusting 2 22.8
2014-Dec-21 01:30 113 1 gusting 2 23.3
2014-Dec-21 01:20 094 1 gusting 2 23.3
2014-Dec-21 01:10 076 0 gusting 1 23.3
2014-Dec-21 01:00 076 1 gusting 1 23.3
2014-Dec-21 00:50 066 1 gusting 1 23.3
2014-Dec-21 00:40 083 0 gusting 1 23.3
2014-Dec-21 00:30 063 0 gusting 1 23.3
2014-Dec-21 00:20 066 0 gusting 2 23.3
2014-Dec-21 00:10 056 0 gusting 1 23.9
2014-Dec-21 00:00 081 1 gusting 1 23.9
2014-Dec-20 23:50 091 1 gusting 1 23.9
2014-Dec-20 23:40 086 0 gusting 1 23.9
2014-Dec-20 23:30 088 0 gusting 2 23.9
2014-Dec-20 23:20 100 1 gusting 1 24.4
2014-Dec-20 23:10 096 1 gusting 2 24.4
2014-Dec-20 23:00 108 1 gusting 4 25.0
2014-Dec-20 22:54 109 2 gusting 4 25.0
2014-Dec-20 22:50 105 2 gusting 5 25.0
2014-Dec-20 22:40 092 1 gusting 2 25.6
2014-Dec-20 22:30 110 2 gusting 6 26.1
2014-Dec-20 22:20 126 1 gusting 5 26.1
2014-Dec-20 22:10 082 2 gusting 6 26.1
2014-Dec-20 22:00 087 3 gusting 6 26.7
2014-Dec-20 21:50 076 3 gusting 7 26.7
2014-Dec-20 21:40 117 2 gusting 7 26.7
2014-Dec-20 21:30 090 5 gusting 6 26.1
2014-Dec-20 21:20 048 1 gusting 5 26.1
2014-Dec-20 21:10 075 5 gusting 6 26.7
2014-Dec-20 21:00 099 3 gusting 6 26.7
2014-Dec-20 20:50 095 4 gusting 6 26.1
2014-Dec-20 20:40 083 1 gusting 6 26.1
2014-Dec-20 20:30 100 4 gusting 6 26.1
2014-Dec-20 20:20 081 6 gusting 6 26.1
2014-Dec-20 20:10 073 5 gusting 7 26.1
2014-Dec-20 20:00 051 2 gusting 4 26.1
2014-Dec-20 19:50 048 2 gusting 6 26.1
2014-Dec-20 19:40 083 6 gusting 8 26.1
2014-Dec-20 19:30 051 2 gusting 4 26.1
2014-Dec-20 19:20 002 2 gusting 6 26.1
2014-Dec-20 19:10 094 2 gusting 4 26.7
2014-Dec-20 19:00 114 5 gusting 7 26.1
2014-Dec-20 18:50 097 1 gusting 5 26.1
2014-Dec-20 18:40 073 6 gusting 6 26.1
2014-Dec-20 18:30 094 4 gusting 6 26.1
2014-Dec-20 18:20 093 2 gusting 6 26.1
2014-Dec-20 18:10 083 1 gusting 8 26.1
2014-Dec-20 18:00 037 4 gusting 6 26.7
2014-Dec-20 17:50 049 5 gusting 6 26.1
2014-Dec-20 17:40 092 4 gusting 6 26.7
2014-Dec-20 17:30 071 2 gusting 6 26.7
2014-Dec-20 17:20 144 2 gusting 7 26.7
2014-Dec-20 17:10 074 5 gusting 6 26.7
2014-Dec-20 17:00 042 5 gusting 6 26.7
2014-Dec-20 16:50 064 6 gusting 6 26.7
2014-Dec-20 16:40 039 5 gusting 7 26.1
2014-Dec-20 16:30 045 4 gusting 7 26.7
2014-Dec-20 16:20 067 5 gusting 8 26.7
2014-Dec-20 16:10 094 7 gusting 8 26.7
2014-Dec-20 16:00 071 4 gusting 7 26.7
2014-Dec-20 15:50 042 5 gusting 6 26.7
2014-Dec-20 15:40 035 6 gusting 8 26.7
2014-Dec-20 15:30 046 5 gusting 6 26.1
2014-Dec-20 15:20 088 2 gusting 7 26.1
2014-Dec-20 15:10 009 2 gusting 4 26.7
2014-Dec-20 15:00 092 1 gusting 6 27.2
2014-Dec-20 14:50 087 4 gusting 6 27.2
2014-Dec-20 14:40 100 4 gusting 6 26.7
2014-Dec-20 14:30 144 2 gusting 7 26.7
2014-Dec-20 14:20 096 5 gusting 6 26.1
2014-Dec-20 14:10 144 3 gusting 6 26.1
2014-Dec-20 14:00 087 4 gusting 5 25.6
2014-Dec-20 13:50 077 5 gusting 5 25.0
2014-Dec-20 13:40 066 1 gusting 4 25.0
2014-Dec-20 13:30 086 2 gusting 4 24.4
2014-Dec-20 13:20 034 2 gusting 4 24.4
2014-Dec-20 13:10 099 3 gusting 4 23.9
2014-Dec-20 13:00 075 2 gusting 2 23.3
2014-Dec-20 12:50 093 1 gusting 2 22.8
2014-Dec-20 12:40 093 1 gusting 1 22.2
2014-Dec-20 12:30 069 1 gusting 1 22.2
2014-Dec-20 12:20 074 0 gusting 1 22.2
2014-Dec-20 12:10 043 0 gusting 0 21.7
2014-Dec-20 12:00 075 0 gusting 0 21.7
2014-Dec-20 11:50 091 0 gusting 1 21.7
2014-Dec-20 11:40 076 0 gusting 0 21.7
2014-Dec-20 11:30 058 0 gusting 1 21.7
2014-Dec-20 11:20 047 0 gusting 1 21.7
2014-Dec-20 11:10 071 0 gusting 1 21.7
2014-Dec-20 11:00 100 1 gusting 1 22.2
2014-Dec-20 10:50 046 0 gusting 1 21.7
2014-Dec-20 10:40 018 0 gusting 0 21.7
2014-Dec-20 10:30 061 0 gusting 1 22.2
2014-Dec-20 10:20 093 0 gusting 0 21.7
2014-Dec-20 10:10 060 22.2
2014-Dec-20 10:00 080 1 gusting 1 21.7
2014-Dec-20 09:50 070 0 gusting 1 21.7
2014-Dec-20 09:40 097 0 gusting 2 21.7
2014-Dec-20 09:30 128 0 gusting 1 22.2
2014-Dec-20 09:20 068 1 gusting 2 22.2
2014-Dec-20 09:10 088 1 gusting 1 22.2
2014-Dec-20 09:00 074 2 gusting 2 22.2
2014-Dec-20 08:50 105 1 gusting 2 22.2
2014-Dec-20 08:40 106 2 gusting 2 22.2
2014-Dec-20 08:30 067 1 gusting 1 22.2
2014-Dec-20 08:20 076 0 gusting 1 22.2
2014-Dec-20 08:10 088 0 gusting 1 22.2
2014-Dec-20 08:00 039 22.2
2014-Dec-20 07:50 077 1 gusting 2 22.2
2014-Dec-20 07:40 070 1 gusting 2 22.2
2014-Dec-20 07:30 056 2 gusting 2 22.2
2014-Dec-20 07:20 093 0 gusting 1 22.2
2014-Dec-20 07:10 086 1 gusting 1 22.2
2014-Dec-20 07:00 060 0 gusting 2 22.8
2014-Dec-20 06:50 070 1 gusting 2 22.8
2014-Dec-20 06:40 081 1 gusting 2 22.2
2014-Dec-20 06:30 118 1 gusting 1 22.8
2014-Dec-20 06:20 107 1 gusting 1 22.8
2014-Dec-20 06:10 094 2 gusting 4 22.8
2014-Dec-20 06:00 081 1 gusting 4 22.8
2014-Dec-20 05:50 078 2 gusting 4 22.8
2014-Dec-20 05:40 066 4 gusting 5 22.8
2014-Dec-20 05:30 092 2 gusting 4 22.8
2014-Dec-20 05:20 081 1 gusting 2 22.8
2014-Dec-20 05:10 113 3 gusting 6 22.8
2014-Dec-20 05:00 093 2 gusting 4 22.8
2014-Dec-20 04:50 098 1 gusting 2 22.8
2014-Dec-20 04:40 099 2 gusting 4 22.8
2014-Dec-20 04:30 089 1 gusting 4 22.8
2014-Dec-20 04:20 087 0 gusting 2 23.3
2014-Dec-20 04:10 092 1 gusting 4 23.3
2014-Dec-20 04:00 078 2 gusting 2 23.3
2014-Dec-20 03:50 094 0 gusting 2 23.3
2014-Dec-20 03:40 084 1 gusting 4 23.3
2014-Dec-20 03:30 086 4 gusting 4 23.3
2014-Dec-20 03:20 109 2 gusting 4 23.3
2014-Dec-20 03:10 097 2 gusting 4 23.3
2014-Dec-20 03:00 089 3 gusting 4 23.9
2014-Dec-20 02:50 091 1 gusting 2 23.9
2014-Dec-20 02:40 073 1 gusting 2 23.9
2014-Dec-20 02:30 065 0 gusting 2 23.9
2014-Dec-20 02:20 100 1 gusting 1 23.9
2014-Dec-20 02:10 036 0 gusting 6 23.9
2014-Dec-20 02:00 073 2 gusting 5 24.4
2014-Dec-20 01:50 094 4 gusting 5 25.0
2014-Dec-20 01:40 091 1 gusting 1 25.0
2014-Dec-20 01:30 075 0 gusting 1 25.0
2014-Dec-20 01:20 030 1 gusting 1 24.4
2014-Dec-20 01:10 032 0 gusting 1 24.4
2014-Dec-20 01:00 093 1 gusting 1 25.0
2014-Dec-20 00:50 113 24.4
2014-Dec-20 00:40 077 1 gusting 1 24.4
2014-Dec-20 00:30 104 0 gusting 1 25.0
2014-Dec-20 00:20 082 0 gusting 4 25.0
2014-Dec-20 00:10 093 1 gusting 1 25.0
2014-Dec-20 00:00 042 0 gusting 4 25.0
2014-Dec-19 23:50 097 2 gusting 4 25.6
2014-Dec-19 23:40 096 1 gusting 2 25.6
2014-Dec-19 23:30 107 0 gusting 5 25.6
2014-Dec-19 23:20 051 2 gusting 5 25.6
2014-Dec-19 23:10 126 0 gusting 2 26.1
2014-Dec-19 23:00 110 0 gusting 1 26.1
2014-Dec-19 22:54 098 1 gusting 2 26.1
2014-Dec-19 22:50 310 26.1
2014-Dec-19 22:40 295 26.1
2014-Dec-19 22:30 116 0 gusting 4 26.1
2014-Dec-19 22:20 038 26.7
2014-Dec-19 22:10 151 27.2
2014-Dec-19 22:00 234 1 gusting 2 27.2
2014-Dec-19 21:50 148 0 gusting 1 27.2
2014-Dec-19 21:40 341 27.2
2014-Dec-19 21:30 073 1 gusting 4 27.8
2014-Dec-19 21:20 133 27.8
2014-Dec-19 21:10 144 0 gusting 2 28.3
2014-Dec-19 21:00 074 1 gusting 1 27.8
2014-Dec-19 20:50 085 0 gusting 2 27.8
2014-Dec-19 20:40 145 1 gusting 2 27.8
2014-Dec-19 20:30 112 1 gusting 2 27.8
2014-Dec-19 20:20 090 0 gusting 6 27.8
2014-Dec-19 20:10 195 28.3
2014-Dec-19 20:00 166 28.3
2014-Dec-19 19:50 019 0 gusting 2 28.3
2014-Dec-19 19:40 173 0 gusting 6 28.3
2014-Dec-19 19:30 28.3
2014-Dec-19 19:20 136 0 gusting 1 28.3
2014-Dec-19 19:10 079 2 gusting 4 28.3
2014-Dec-19 19:00 133 1 gusting 4 28.3